Location: Bemmer
(51.5498°N, 5.6249°E)
Time: 15:39:48
(UTC+00:00)

Spot 2 Rocket - Pass Details

Date: 03 March 2021
Orbit: 757 x 772 km, 98.5° (Epoch: 13 April)

Event Time Altitude Azimuth Distance (km) Brightness Sun altitude
Exits shadow 20:01:34 37° 36° (NE) 1,197 4.3 -25.2°
Drops below altitude 10° 20:05:19 10° 356° (N) 2,329 6.3 -25.7°
Sets 20:07:44 0° 350° (N) 3,262 7.2 -26.1°
